Regional Weather Roundup
Issued by NWS

Home | Current Version | Previous Version | Graphics & Text | Print | Product List | Glossary On
Versions: 1 2 3 4 5 6 7 8 9 10 11 12 13 14 15 16 17 18 19 20 21 22 23 24 25 26 27 28 29 30 31 32 33 34 35 36 37 38 39 40 41 42 43 44 45 46 47 48 49 50
866
ASUS43 KLOT 042103
RWRIL

ILLINOIS REGIONAL WEATHER ROUNDUP
NATIONAL WEATHER SERVICE CHICAGO/ROMEOVILLE IL
300 PM CST SUN DEC 04 2016

NOTE: "FAIR" INDICATES FEW OR NO CLOUDS BELOW 12,000 FEET WITH NO
SIGNIFICANT WEATHER AND/OR OBSTRUCTIONS TO VISIBILITY.

* THESE STATIONS ARE NOT UNDER NWS QUALITY CONTROL. THEY ALSO MAY NOT
  REPORT WEATHER SUCH AS PRECIPITATION OR FOG.

ILZ001-002-007-009-015-016-024-042200-
NORTHWEST ILLINOIS

CITY           SKY/WX    TMP DP  RH WIND       PRES   REMARKS
MOLINE         LGT SNOW  33  31  92 CALM      29.92S FOG
STERLING*      LGT SNOW  33  30  88 SE3       29.93F VSB 3/4
$$

ILZ003-004-008-010-011-017-018-042200-
NORTH CENTRAL ILLINOIS

CITY           SKY/WX    TMP DP  RH WIND       PRES   REMARKS
ROCKFORD       SNOW      31  30  96 S5        29.94F VSB 1/4 WCI  26
ROCHELLE*      LGT SNOW  30  30  99 CALM      29.93F VSB 3/4
$$

ILZ005-006-012>014-019>023-042200-
NORTHEAST ILLINOIS

CITY           SKY/WX    TMP DP  RH WIND       PRES   REMARKS
CHICAGO-OHARE  HVY SNOW  32  31  96 SE3       29.91F VSB 1/4
CHICAGO-MIDWAY SNOW      33  30  88 E7        29.91F VSB 1/2 WCI  27
AURORA         HVY SNOW  33  31  92 CALM      29.91F VSB 1/4
LANSING*       SNOW      32  32 100 CALM      29.92F VSB 1/2
WAUKEGAN       SNOW      32  32 100 S5        29.91F VSB 1/4 WCI  27
DUPAGE AIRPORT HVY SNOW  32  29  88 CALM      29.91S VSB 1/4
KANKAKEE*      SNOW      32  32  99 CALM      29.89F VSB 1/2
WHEELING       SNOW      32  31  96 CALM      29.93F VSB 1/4
MORRIS*        LGT SNOW  32  31  96 CALM      29.91R VSB 3/4
NORTHERLY ISL    N/A     33  32  96 SE7         N/A  WCI  27
$$

LMZ740>746-042200-
SOUTHERN LAKE MICHIGAN

STATION/POSITION SKY/WX   TEMP    WIND        PRES    VSBY  WAVE
                          AIR SEA DIR/SP/G                  HT/PER
                          (F)     (DEG/KT/KT) (MB)    (MI)  (FT/S)
SOUTHERN BUOY              36 48  140/ 14/ 17 1013.7F         2/ 4
HARRISON CRIB              34     140/ 10/ 11   N/A
BURNHAM HARBOR             33     120/  8       N/A
CALUMET HARBOR             33     110/  7/ 10 1013.1F
BURNS HARBOR               33      80/  7/  9 1013.9F
$$

ILZ025>027-034>036-040-047-049-050-058-095>099-042200-
WEST-CENTRAL ILLINOIS

CITY           SKY/WX    TMP DP  RH WIND       PRES   REMARKS
QUINCY         CLOUDY    34  33  96 W6        29.92S WCI  29
GALESBURG*     LGT SNOW  33  32  97 CALM      29.92R
MACOMB*        LGT SNOW  33  33 100 CALM      29.95S
JACKSONVILLE*  CLOUDY    33  32  96 CALM      29.93S FOG
PITTSFIELD*    CLOUDY    34  33  97 SW6       29.95R WCI  29
$$

ILZ028>032-037-038-041>044-048-051>054-059>061-042200-
CENTRAL ILLINOIS

CITY           SKY/WX    TMP DP  RH WIND       PRES   REMARKS
BLOOMINGTON    LGT SNOW  34  31  88 CALM      29.90S VSB 3/4
DECATUR        SNOW     N/A N/A N/A CALM      29.90S VSB 1/2
PEORIA         LGT SNOW  33  33 100 NE3       29.92F FOG
LACON*         LGT SNOW  32  32 100 CALM      29.92S VSB 3/4
LINCOLN*       HVY RAIN  33  33 100 CALM      29.92R
SPRINGFIELD    LGT SNOW  34  32  92 CALM      29.92F FOG
TAYLORVILLE    LGT SNOW  32  32 100 CALM      29.93R
$$

ILZ033-039-045-046-055>057-062-063-042200-
EAST-CENTRAL ILLINOIS

CITY           SKY/WX    TMP DP  RH WIND       PRES   REMARKS
CHAMPAIGN      SNOW      33  31  92 E8        29.88F VSB 1/2 WCI  26
RANTOUL*       LGT SNOW  34  34  99 E7        29.86F VSB 3/4 WCI  28
MATTOON        LGT RAIN  36  34  92 CALM      29.88F
PARIS*         LGT RAIN  36  36  99 CALM      29.91F
$$

ILZ079-100>102-042200-
SOUTHWEST ILLINOIS

CITY           SKY/WX    TMP DP  RH WIND       PRES   REMARKS
ALTON          CLOUDY    37  36  93 W7        29.94S WCI  32
BELLEVILLE     CLOUDY    40  40  99 W9        29.94R
CAHOKIA*       CLOUDY    41  36  82 W8        29.95R
SPARTA*        CLOUDY    40  38  93 W7        29.96S
$$

ILZ064>066-069>071-074>076-080>082-084>086-088>090-092>094-042200-
SOUTH-CENTRAL ILLINOIS

CITY           SKY/WX    TMP DP  RH WIND       PRES   REMARKS
CARBONDALE     CLOUDY    42  42 100 W8        29.95R
CAIRO*         LGT RAIN  44  43  98 SW7       29.96R
EFFINGHAM*     RAIN      40  40 100 SW8       29.93S
MARION         DRIZZLE   45  43  93 SW6       29.95S
CENTRALIA*     DRIZZLE   40  39  96 W10       29.93R
SALEM*         DRIZZLE   41  38  88 W10       29.93R
METROPOLIS*    RAIN      45  44  96 SW5       29.96R
$$

ILZ067-068-072-073-078-083-087-091-042200-
SOUTHEAST ILLINOIS

CITY           SKY/WX    TMP DP  RH WIND       PRES   REMARKS
LAWRENCEVILLE  LGT RAIN  43  41  93 SW10      29.92R FOG
FLORA*         LGT RAIN  42  40  93 W8        29.92F
FAIRFIELD*     RAIN      42  41  99 SW5       29.92S
HARRISBURG*    RAIN      44  44  98 W8        29.94S
ROBINSON*      LGT RAIN  40  40  99 W8        29.93R
CARMI*         DRIZZLE   43  43 100 SW8       29.93R
$$

ABBREVIATIONS USED IN REMARKS
   TC - TEMPERATURE IN CELSIUS
  WCI - WIND CHILL INDEX
   HX - HEAT INDEX
  VSB - VISIBILITY
$$





USA.gov is the U.S. government's official web portal to all federal, state and local government web resources and services.